Weather History for Chesapeake, VA

Change the Weather History Date:

Wednesday, April 23, 2014

  Actual Average (KORF) Record (KORF)
Temperature  
Mean Temperature 58 °F 60 °F  
Max Temperature 69 °F 70 °F 92 °F (1960)
Min Temperature 48 °F 51 °F 38 °F (1875)
Degree Days  
Heating Degree Days 6 6  
Month to date heating degree days 201  
Since 1 July heating degree days 3262  
Cooling Degree Days 0 2  
Month to date cooling degree days 26  
Year to date cooling degree days 33  
Growing Degree Days 8 (Base 50)    
Moisture  
Dew Point 41 °F    
Average Humidity 48    
Maximum Humidity 82    
Minimum Humidity 25    
Precipitation  
Precipitation 0.00 in 0.11 in 2.23 in (1883)
Month to date precipitation 2.63  
Year to date precipitation 12.83  
Snow  
Snow 0.00 in 0.00 in 0.00 in (2002)
Month to date snowfall 0.0  
Since 1 July snowfall 5.8  
Snow Depth -    
Sea Level Pressure  
Sea Level Pressure 29.77 in    
Wind  
Wind Speed 7 mph (NW)    
Max Wind Speed 21 mph    
Max Gust Speed 28 mph    
Visibility 10 miles    
Events      
T = Trace of Precipitation, MM = Missing Value Source: NWS Daily Summary

Daily Weather History Graph

Daily Weather History Graph

Search for Another Location

Airport:

Trip Planner

Search our weather history database for the weather conditions in past years. The results will help you decide how hot, cold, wet, or windy it might be!

Date:

Astronomy

Apr. 23, 2014 Rise Set
Actual Time 6:21 AM EDT 7:46 PM EDT
Civil Twilight 5:53 AM EDT 8:13 PM EDT
Nautical Twilight 5:21 AM EDT 8:46 PM EDT
Astronomical Twilight 4:47 AM EDT 9:20 PM EDT
Moon 2:41 AM EDT (4/23) 2:01 PM EDT (4/23)
Length of Visible Light 14h 19m
Length of Day
13h 25m
Waning Crescent, 35% of the Moon is Illuminated
Apr 23
Waning Crescent
Apr 29
New
May 6
First Quarter
May 14
Full
May 21
Last Quarter

Hourly Weather History & Observations

Time (EDT) Temp. Dew Point Humidity Pressure Visibility Wind Dir Wind Speed Gust Speed Precip Events Conditions
12:15 AM 64.4 °F 55.4 °F 73% 29.64 in 10.0 mi Calm Calm - N/A   Mostly Cloudy
12:35 AM 64.4 °F 55.4 °F 73% 29.64 in 10.0 mi Calm Calm - N/A   Scattered Clouds
12:55 AM 62.6 °F 55.4 °F 77% 29.63 in 10.0 mi Calm Calm - N/A   Clear
1:15 AM 62.6 °F 55.4 °F 77% 29.63 in 10.0 mi Calm Calm - N/A   Mostly Cloudy
1:35 AM 62.6 °F 55.4 °F 77% 29.63 in 10.0 mi WSW 3.5 mph - N/A   Mostly Cloudy
1:55 AM 62.6 °F 55.4 °F 77% 29.62 in 10.0 mi WSW 4.6 mph - N/A   Mostly Cloudy
2:15 AM 62.6 °F 55.4 °F 77% 29.62 in 10.0 mi WSW 5.8 mph - N/A   Scattered Clouds
2:35 AM 62.6 °F 55.4 °F 77% 29.62 in 10.0 mi WSW 4.6 mph - N/A   Clear
2:55 AM 62.6 °F 55.4 °F 77% 29.62 in 10.0 mi Calm Calm - N/A   Clear
3:15 AM 60.8 °F 55.4 °F 82% 29.62 in 10.0 mi WSW 3.5 mph - N/A   Clear
3:35 AM 60.8 °F 55.4 °F 82% 29.62 in 10.0 mi Calm Calm - N/A   Clear
3:55 AM 60.8 °F 55.4 °F 82% 29.63 in 10.0 mi NW 3.5 mph - N/A   Clear
4:15 AM 60.8 °F 55.4 °F 82% 29.64 in 10.0 mi NNW 5.8 mph - N/A   Clear
4:35 AM 62.6 °F 53.6 °F 72% 29.65 in 10.0 mi North 6.9 mph - N/A   Clear
4:55 AM 62.6 °F 51.8 °F 68% 29.67 in 10.0 mi North 8.1 mph 17.3 mph N/A   Mostly Cloudy
5:15 AM 62.6 °F 51.8 °F 68% 29.67 in 10.0 mi North 9.2 mph 18.4 mph N/A   Mostly Cloudy
5:55 AM 60.8 °F 50.0 °F 68% 29.69 in 10.0 mi North 12.7 mph 18.4 mph N/A   Clear
6:15 AM 60.8 °F 50.0 °F 68% 29.70 in 10.0 mi North 10.4 mph 18.4 mph N/A   Clear
6:35 AM 59.0 °F 46.4 °F 63% 29.71 in 10.0 mi North 8.1 mph - N/A   Mostly Cloudy
6:55 AM 59.0 °F 44.6 °F 59% 29.72 in 10.0 mi North 9.2 mph - N/A   Overcast
7:15 AM 57.2 °F 39.2 °F 51% 29.73 in 10.0 mi North 11.5 mph 20.7 mph N/A   Mostly Cloudy
7:35 AM 57.2 °F 37.4 °F 48% 29.74 in 10.0 mi NNW 12.7 mph 19.6 mph N/A   Scattered Clouds
7:55 AM 57.2 °F 37.4 °F 48% 29.75 in 10.0 mi NNW 8.1 mph 16.1 mph N/A   Scattered Clouds
8:15 AM 57.2 °F 37.4 °F 48% 29.75 in 10.0 mi NNW 11.5 mph 16.1 mph N/A   Clear
8:35 AM 59.0 °F 35.6 °F 42% 29.76 in 10.0 mi NNW 11.5 mph 17.3 mph N/A   Clear
8:55 AM 59.0 °F 35.6 °F 42% 29.77 in 10.0 mi NNW 12.7 mph 21.9 mph N/A   Clear
9:15 AM 60.8 °F 35.6 °F 39% 29.78 in 10.0 mi NNW 11.5 mph 21.9 mph N/A   Clear
9:35 AM 60.8 °F 37.4 °F 42% 29.79 in 10.0 mi NNW 12.7 mph 18.4 mph N/A   Clear
9:55 AM 60.8 °F 37.4 °F 42% 29.79 in 10.0 mi NW 11.5 mph 16.1 mph N/A   Clear
10:15 AM 62.6 °F 37.4 °F 39% 29.80 in 10.0 mi NW 16.1 mph 20.7 mph N/A   Clear
10:35 AM 60.8 °F 35.6 °F 39% 29.79 in 10.0 mi NW 12.7 mph 16.1 mph N/A   Clear
10:55 AM 62.6 °F 35.6 °F 37% 29.80 in 10.0 mi NW 15.0 mph 20.7 mph N/A   Clear
11:15 AM 62.6 °F 35.6 °F 37% 29.79 in 10.0 mi NNW 9.2 mph - N/A   Clear
11:35 AM 64.4 °F 35.6 °F 34% 29.79 in 10.0 mi NW 12.7 mph 20.7 mph N/A   Clear
11:55 AM 64.4 °F 35.6 °F 34% 29.79 in 10.0 mi NW 15.0 mph 21.9 mph N/A   Clear
12:15 PM 64.4 °F 35.6 °F 34% 29.79 in 10.0 mi NNW 6.9 mph 16.1 mph N/A   Clear
12:35 PM 66.2 °F 37.4 °F 35% 29.79 in 10.0 mi West 12.7 mph 17.3 mph N/A   Scattered Clouds
12:55 PM 66.2 °F 35.6 °F 32% 29.78 in 10.0 mi NW 13.8 mph 20.7 mph N/A   Scattered Clouds
1:15 PM 68.0 °F 33.8 °F 28% 29.78 in 10.0 mi WNW 15.0 mph 25.3 mph N/A   Scattered Clouds
1:35 PM 68.0 °F 33.8 °F 28% 29.78 in 10.0 mi WNW 20.7 mph 25.3 mph N/A   Scattered Clouds
2:15 PM 69.8 °F 32.0 °F 25% 29.77 in 10.0 mi NNW 16.1 mph 20.7 mph N/A   Clear
2:35 PM 69.8 °F 33.8 °F 27% 29.78 in 10.0 mi WNW 12.7 mph 23.0 mph N/A   Clear
2:55 PM 69.8 °F 33.8 °F 27% 29.78 in 10.0 mi NW 17.3 mph 24.2 mph N/A   Clear
3:15 PM 69.8 °F 32.0 °F 25% 29.78 in 10.0 mi NW 19.6 mph 24.2 mph N/A   Clear
3:35 PM 69.8 °F 32.0 °F 25% 29.78 in 10.0 mi NW 13.8 mph 25.3 mph N/A   Clear
3:55 PM 69.8 °F 32.0 °F 25% 29.78 in 10.0 mi NW 16.1 mph 26.5 mph N/A   Clear
4:15 PM 69.8 °F 32.0 °F 25% 29.79 in 10.0 mi West 13.8 mph 27.6 mph N/A   Clear
4:35 PM 69.8 °F 33.8 °F 27% 29.79 in 10.0 mi West 10.4 mph 15.0 mph N/A   Clear
4:55 PM 69.8 °F 32.0 °F 25% 29.79 in 10.0 mi NW 12.7 mph 21.9 mph N/A   Clear
5:15 PM 69.8 °F 33.8 °F 27% 29.80 in 10.0 mi WNW 11.5 mph 23.0 mph N/A   Clear
5:35 PM 69.8 °F 32.0 °F 25% 29.80 in 10.0 mi WNW 12.7 mph 19.6 mph N/A   Clear
5:55 PM 68.0 °F 32.0 °F 26% 29.81 in 10.0 mi NW 10.4 mph 19.6 mph N/A   Clear
6:15 PM 66.2 °F 33.8 °F 30% 29.83 in 10.0 mi NNW 12.7 mph 19.6 mph N/A   Clear
6:35 PM 66.2 °F 33.8 °F 30% 29.83 in 10.0 mi NNW 10.4 mph 17.3 mph N/A   Clear
6:55 PM 64.4 °F 33.8 °F 32% 29.84 in 10.0 mi NW 8.1 mph 18.4 mph N/A   Clear
7:15 PM 64.4 °F 33.8 °F 32% 29.84 in 10.0 mi NNW 5.8 mph - N/A   Clear
7:35 PM 64.4 °F 35.6 °F 34% 29.85 in 10.0 mi NNW 3.5 mph - N/A   Clear
7:55 PM 62.6 °F 35.6 °F 37% 29.85 in 10.0 mi NW 4.6 mph - N/A   Clear
8:15 PM 60.8 °F 35.6 °F 39% 29.87 in 10.0 mi Calm Calm - N/A   Clear
8:35 PM 60.8 °F 35.6 °F 39% 29.88 in 10.0 mi Calm Calm - N/A   Clear
8:55 PM 57.2 °F 37.4 °F 48% 29.90 in 10.0 mi Calm Calm - N/A   Clear
9:15 PM 53.6 °F 41.0 °F 62% 29.91 in 10.0 mi Calm Calm - N/A   Clear
9:35 PM 51.8 °F 42.8 °F 71% 29.92 in 10.0 mi Calm Calm - N/A   Clear
9:55 PM 55.4 °F 41.0 °F 58% 29.93 in 10.0 mi Calm Calm - N/A   Clear
10:15 PM 48.2 °F 39.2 °F 71% 29.94 in 10.0 mi Calm Calm - N/A   Clear
10:55 PM 57.2 °F 35.6 °F 44% 29.95 in 10.0 mi NNW 5.8 mph - N/A   Clear
11:15 PM 55.4 °F 35.6 °F 47% 29.95 in 10.0 mi NW 3.5 mph - N/A   Clear
11:35 PM 57.2 °F 35.6 °F 44% 29.96 in 10.0 mi North 4.6 mph - N/A   Clear
11:55 PM 57.2 °F 33.8 °F 41% 29.96 in 10.0 mi North 9.2 mph - N/A   Clear